When you browse on this site, cookies collect data to enhance your experience and personalize the content and advertising you see.
Visit our Privacy Policy to learn more. By continuing to use the site, you agree to this use of cookies and data.
  • en Suisse
  • Liste des pays
  • À 7 jours
  • Température de l'eau
  • Carte météo
  • Widgets météo
  • user-avatar
    Se connecter

    Météo par heure à Marinka

    Ce jour, 26 Février, Mercredi

    Heure Température Précipitation Vent Pression Humidité
    00:00 -1°C° 0 mm 4 m/s 745 mmHg 81%
    01:00 -1°C° 0 mm 4 m/s 745 mmHg 82%
    02:00 -1°C° 0 mm 4 m/s 745 mmHg 84%
    03:00 -1°C° 0 mm 5 m/s 744 mmHg 85%
    04:00 -1°C° 0 mm 5 m/s 744 mmHg 86%
    05:00 0°C° 0 mm 5 m/s 744 mmHg 87%
    06:00 -1°C° 0 mm 6 m/s 743 mmHg 88%
    07:00 -1°C° 0 mm 6 m/s 743 mmHg 87%
    08:00 0°C° 0 mm 7 m/s 743 mmHg 86%
    09:00 +2°C° 0 mm 7 m/s 743 mmHg 84%
    10:00 +2°C° 0 mm 8 m/s 742 mmHg 78%
    11:00 +4°C° 0 mm 8 m/s 742 mmHg 73%
    12:00 +5°C° 0 mm 9 m/s 742 mmHg 67%
    13:00 +6°C° 0 mm 9 m/s 741 mmHg 64%
    14:00 +6°C° 0 mm 9 m/s 741 mmHg 62%
    15:00 +7°C° 0 mm 10 m/s 740 mmHg 59%
    16:00 +6°C° 0 mm 9 m/s 740 mmHg 61%
    17:00 +5°C° 0 mm 9 m/s 740 mmHg 63%
    18:00 +5°C° 0 mm 8 m/s 740 mmHg 65%
    19:00 +4°C° 0 mm 8 m/s 740 mmHg 68%
    20:00 +4°C° 0 mm 8 m/s 740 mmHg 71%
    21:00 +2°C° 0 mm 8 m/s 740 mmHg 73%
    22:00 +2°C° 0 mm 8 m/s 740 mmHg 74%
    23:00 +3°C° 0 mm 7 m/s 739 mmHg 75%

    Demain, 27 Février, Jeudi

    Heure Température Précipitation Vent Pression Humidité
    00:00 +3°C° 0 mm 7 m/s 739 mmHg 75%
    01:00 +3°C° 0 mm 7 m/s 739 mmHg 78%
    02:00 +3°C° 0 mm 6 m/s 739 mmHg 80%
    03:00 +3°C° 0 mm 6 m/s 739 mmHg 82%
    04:00 +3°C° 0 mm 6 m/s 738 mmHg 84%
    05:00 +3°C° 0 mm 6 m/s 738 mmHg 86%
    06:00 +3°C° 0 mm 6 m/s 738 mmHg 89%
    07:00 +3°C° 0 mm 6 m/s 738 mmHg 85%
    08:00 +4°C° 0 mm 7 m/s 738 mmHg 82%
    09:00 +5°C° 0 mm 7 m/s 738 mmHg 79%
    10:00 +6°C° 0 mm 7 m/s 738 mmHg 73%
    11:00 +9°C° 0 mm 8 m/s 737 mmHg 67%
    12:00 +10°C° 0 mm 8 m/s 737 mmHg 62%
    13:00 +11°C° 0 mm 8 m/s 737 mmHg 63%
    14:00 +11°C° 0 mm 8 m/s 737 mmHg 64%
    15:00 +12°C° 0 mm 8 m/s 737 mmHg 65%
    16:00 +11°C° 0 mm 8 m/s 737 mmHg 68%
    17:00 +11°C° 0 mm 7 m/s 737 mmHg 72%
    18:00 +10°C° 0 mm 7 m/s 736 mmHg 76%
    19:00 +9°C° 0 mm 7 m/s 737 mmHg 78%
    20:00 +9°C° 0 mm 7 m/s 737 mmHg 80%
    21:00 +8°C° 0 mm 7 m/s 737 mmHg 82%
    22:00 +8°C° 0 mm 7 m/s 737 mmHg 81%
    23:00 +8°C° 0 mm 7 m/s 737 mmHg 80%

    Après-demain, 28 Février, Vendredi

    Heure Température Précipitation Vent Pression Humidité
    00:00 +8°C° 0 mm 7 m/s 736 mmHg 79%
    01:00 +8°C° 0.1 mm 7 m/s 736 mmHg 80%
    02:00 +8°C° 0.1 mm 7 m/s 736 mmHg 80%
    03:00 +6°C° 0.1 mm 7 m/s 735 mmHg 81%
    04:00 +7°C° 0.3 mm 6 m/s 735 mmHg 83%
    05:00 +5°C° 0.3 mm 6 m/s 734 mmHg 86%
    06:00 +5°C° 0.3 mm 6 m/s 734 mmHg 88%
    07:00 +4°C° 0.3 mm 6 m/s 734 mmHg 84%
    08:00 +4°C° 0.3 mm 7 m/s 735 mmHg 80%
    09:00 +4°C° 0.3 mm 8 m/s 735 mmHg 76%
    10:00 +4°C° 0 mm 8 m/s 736 mmHg 78%
    11:00 +2°C° 0 mm 8 m/s 736 mmHg 79%
    12:00 +2°C° 0 mm 8 m/s 737 mmHg 80%
    13:00 +2°C° 0 mm 8 m/s 738 mmHg 77%
    14:00 +2°C° 0 mm 8 m/s 739 mmHg 74%
    15:00 +2°C° 0 mm 8 m/s 740 mmHg 71%
    16:00 +3°C° 0 mm 7 m/s 741 mmHg 68%
    17:00 +3°C° 0 mm 5 m/s 741 mmHg 66%
    18:00 +4°C° 0 mm 4 m/s 742 mmHg 63%
    19:00 +3°C° 0 mm 3 m/s 743 mmHg 65%
    20:00 +2°C° 0 mm 3 m/s 744 mmHg 68%
    21:00 +1°C° 0 mm 3 m/s 744 mmHg 70%
    22:00 +2°C° 0 mm 2 m/s 744 mmHg 70%
    23:00 +2°C° 0 mm 2 m/s 745 mmHg 70%

    29 Février, Samedi

    Heure Température Précipitation Vent Pression Humidité
    00:00 +2°C° 0 mm 2 m/s 745 mmHg 70%
    01:00 +2°C° 0 mm 2 m/s 745 mmHg 70%
    02:00 +2°C° 0 mm 2 m/s 745 mmHg 70%
    03:00 +1°C° 0 mm 2 m/s 745 mmHg 70%
    04:00 +1°C° 0 mm 2 m/s 744 mmHg 71%
    05:00 +1°C° 0 mm 2 m/s 744 mmHg 72%
    06:00 +1°C° 0 mm 2 m/s 744 mmHg 74%
    07:00 +2°C° 0 mm 2 m/s 744 mmHg 74%
    08:00 +1°C° 0 mm 3 m/s 744 mmHg 74%
    09:00 +2°C° 0 mm 3 m/s 744 mmHg 74%
    10:00 +3°C° 0 mm 3 m/s 744 mmHg 73%
    11:00 +4°C° 0 mm 4 m/s 744 mmHg 73%
    12:00 +5°C° 0 mm 4 m/s 743 mmHg 72%
    13:00 +5°C° 0.1 mm 4 m/s 743 mmHg 70%
    14:00 +6°C° 0.1 mm 4 m/s 743 mmHg 67%
    15:00 +6°C° 0.1 mm 4 m/s 743 mmHg 65%
    16:00 +5°C° 0.1 mm 4 m/s 743 mmHg 68%
    17:00 +5°C° 0.1 mm 4 m/s 743 mmHg 72%
    18:00 +4°C° 0.1 mm 3 m/s 743 mmHg 75%
    19:00 +4°C° 0.2 mm 3 m/s 743 mmHg 80%
    20:00 +3°C° 0.2 mm 3 m/s 743 mmHg 84%
    21:00 +3°C° 0.2 mm 3 m/s 744 mmHg 89%
    22:00 +3°C° 0.8 mm 3 m/s 744 mmHg 91%
    23:00 +3°C° 0.8 mm 2 m/s 744 mmHg 94%

    1 Mars, Dimanche

    Heure Température Précipitation Vent Pression Humidité
    00:00 +3°C° 0.8 mm 2 m/s 744 mmHg 96%
    01:00 +3°C° 1 mm 2 m/s 744 mmHg 96%
    02:00 +3°C° 1 mm 2 m/s 745 mmHg 95%
    03:00 +3°C° 1 mm 2 m/s 745 mmHg 95%
    04:00 +2°C° 0.3 mm 2 m/s 745 mmHg 93%
    05:00 +1°C° 0.3 mm 3 m/s 746 mmHg 90%
    06:00 0°C° 0.3 mm 4 m/s 746 mmHg 88%
    07:00 0°C° 0 mm 4 m/s 747 mmHg 86%
    08:00 0°C° 0 mm 4 m/s 747 mmHg 84%
    09:00 0°C° 0 mm 5 m/s 748 mmHg 82%
    10:00 +1°C° 0 mm 5 m/s 748 mmHg 79%
    11:00 +1°C° 0 mm 5 m/s 748 mmHg 76%
    12:00 +2°C° 0 mm 5 m/s 749 mmHg 73%
    13:00 +2°C° 0 mm 5 m/s 749 mmHg 69%
    14:00 +3°C° 0 mm 5 m/s 749 mmHg 65%
    15:00 +3°C° 0 mm 5 m/s 749 mmHg 62%
    16:00 +4°C° 0 mm 4 m/s 750 mmHg 63%
    17:00 +4°C° 0 mm 3 m/s 750 mmHg 64%
    18:00 +3°C° 0 mm 3 m/s 750 mmHg 65%
    19:00 +4°C° 0 mm 2 m/s 751 mmHg 68%
    20:00 +3°C° 0 mm 2 m/s 751 mmHg 71%
    21:00 +3°C° 0 mm 1 m/s 751 mmHg 74%
    22:00 +3°C° 0 mm 1 m/s 751 mmHg 75%
    23:00 +3°C° 0 mm 1 m/s 752 mmHg 76%

    2 Mars, Lundi

    Heure Température Précipitation Vent Pression Humidité
    00:00 +1°C° 0 mm 0 m/s 752 mmHg 78%
    01:00 +2°C° 0 mm 1 m/s 752 mmHg 78%
    02:00 +2°C° 0 mm 1 m/s 752 mmHg 79%
    03:00 +2°C° 0 mm 1 m/s 752 mmHg 79%
    04:00 +2°C° 0 mm 1 m/s 752 mmHg 80%
    05:00 +1°C° 0 mm 2 m/s 751 mmHg 81%
    06:00 -1°C° 0 mm 2 m/s 751 mmHg 81%
    07:00 +1°C° 0 mm 2 m/s 751 mmHg 80%
    08:00 +1°C° 0 mm 3 m/s 751 mmHg 79%
    09:00 +1°C° 0 mm 3 m/s 751 mmHg 78%
    10:00 +2°C° 0 mm 3 m/s 751 mmHg 71%
    11:00 +3°C° 0 mm 3 m/s 751 mmHg 65%
    12:00 +4°C° 0 mm 4 m/s 751 mmHg 59%
    13:00 +5°C° 0 mm 4 m/s 750 mmHg 57%
    14:00 +5°C° 0 mm 4 m/s 750 mmHg 56%
    15:00 +5°C° 0 mm 4 m/s 750 mmHg 55%
    16:00 +5°C° 0 mm 4 m/s 749 mmHg 57%
    17:00 +4°C° 0 mm 4 m/s 749 mmHg 59%
    18:00 +4°C° 0 mm 4 m/s 749 mmHg 60%
    19:00 +3°C° 0 mm 4 m/s 748 mmHg 63%
    20:00 +3°C° 0 mm 4 m/s 748 mmHg 65%
    21:00 +1°C° 0 mm 4 m/s 748 mmHg 67%
    22:00 +3°C° 0 mm 4 m/s 748 mmHg 69%
    23:00 +3°C° 0 mm 4 m/s 748 mmHg 71%
    Voir plus